This is the latest recevied weather packets stored in our database for station/object K8GLX. If no packets are shown the sender has not sent any weather packets the latest 10 day(s).
| Time | Temp. | Humidity | Pressure | Rain* | Wind** | Luminosity | Snow |
|---|---|---|---|---|---|---|---|
| 1777697535 | 5° C | 78% | 1016.7 hPa | 0.51 mm | - | 0 W/m² | - |
| 1777697229 | 5.56° C | 75% | 1016.6 hPa | 0.25 mm | - | 0 W/m² | - |
| 1777696934 | 5.56° C | 78% | 1016.7 hPa | 0.25 mm | - | 0 W/m² | - |
| 1777696629 | 5.56° C | 76% | 1016.6 hPa | 0.25 mm | - | 0 W/m² | - |
| 1777696334 | 5.56° C | 76% | 1016.6 hPa | 0.25 mm | - | 0 W/m² | - |
| 1777696029 | 5.56° C | 80% | 1016.5 hPa | 0.25 mm | - | 0 W/m² | - |
| 1777695736 | 6.11° C | 81% | 1016.5 hPa | 0.25 mm | - | 0 W/m² | - |
| 1777695429 | 6.11° C | 76% | 1016.5 hPa | 0.25 mm | - | 0 W/m² | - |
| 1777695134 | 6.11° C | 77% | 1016.4 hPa | 0.25 mm | - | 0 W/m² | - |
| 1777694828 | 6.11° C | 76% | 1016.4 hPa | 0 mm | - | 0 W/m² | - |
| 1777694661 | 6.11° C | 75% | 1016.2 hPa | 0 mm | - | 0 W/m² | - |
| 1777694229 | 6.11° C | 75% | 1016.2 hPa | 0 mm | - | 0 W/m² | - |
| 1777693935 | 6.67° C | 76% | 1015.9 hPa | 0 mm | - | 0 W/m² | - |
| 1777693629 | 6.67° C | 75% | 1015.8 hPa | 0 mm | - | 0 W/m² | - |
| 1777693335 | 6.11° C | 76% | 1016.1 hPa | 0 mm | - | 0 W/m² | - |
| 1777693029 | 6.67° C | 77% | 1015.8 hPa | 0 mm | - | 0 W/m² | - |
| 1777692734 | 6.67° C | 76% | 1015.9 hPa | 0 mm | - | 0 W/m² | - |
| 1777692428 | 6.67° C | 78% | 1016 hPa | 0 mm | - | 0 W/m² | - |
| 1777692134 | 6.67° C | 77% | 1016 hPa | 0 mm | - | 0 W/m² | - |
| 1777691829 | 6.67° C | 77% | 1015.8 hPa | 0 mm | - | 0 W/m² | - |
| 1777691535 | 6.67° C | 77% | 1015.8 hPa | 0 mm | - | 0 W/m² | - |
| 1777691229 | 6.67° C | 79% | 1015.7 hPa | 0 mm | - | 0 W/m² | - |
| 1777691007 | 6.67° C | 79% | 1015.7 hPa | 0 mm | - | 0 W/m² | - |
| 1777690714 | 6.67° C | 80% | 1015.9 hPa | 0 mm | - | 0 W/m² | - |
| 1777690436 | 6.67° C | 79% | 1015.9 hPa | 0 mm | - | 0 W/m² | - |
* Rain latest hour (hover to see other rain measurements)
** Current wind speed in m/s (hover to see current wind gust speed)